| time (UTC) | temp C | wind direction | speed KPH | gust KPH | rain 1hr cm | rain 24hr cm | rain mn cm | humidity % | barometer mb |
| 20260510044617 | 7 | 205 | 1.6 | 8.0 | 0.00 | 1.96 | 0.00 | 96 | 1010.1 |
| 20260510043058 | 7 | 0 | 1.6 | 6.4 | 0.00 | 1.96 | 0.00 | 95 | 1010.1 |
| 20260510041601 | 7 | 191 | 0.0 | 4.8 | 0.00 | 1.96 | 0.00 | 95 | 1010.1 |
| 20260510040059 | 8 | 0 | 0.0 | 4.8 | 0.00 | 1.96 | 0.00 | 95 | 1010.1 |
| 20260510034556 | 8 | 203 | 0.0 | 8.0 | 0.00 | 1.96 | 1.96 | 94 | 1009.6 |
| 20260510033109 | 8 | 292 | 0.0 | 8.0 | 0.00 | 1.96 | 1.96 | 94 | 1009.6 |
| 20260510031558 | 8 | 219 | 1.6 | 11.3 | 0.00 | 1.96 | 1.96 | 95 | 1009.5 |
| 20260510030106 | 8 | 194 | 1.6 | 6.4 | 0.00 | 1.96 | 1.96 | 96 | 1009.7 |
| 20260510024558 | 8 | 165 | 1.6 | 12.9 | 0.00 | 1.96 | 1.96 | 96 | 1009.5 |
| 20260510023057 | 8 | 0 | 3.2 | 14.5 | 0.00 | 1.96 | 1.96 | 96 | 1009.4 |
| 20260510021624 | 8 | 197 | 3.2 | 8.0 | 0.00 | 1.96 | 1.96 | 96 | 1009.6 |
| 20260510020057 | 8 | 183 | 1.6 | 9.7 | 0.00 | 1.96 | 1.96 | 96 | 1009.4 |
| 20260510014600 | 8 | 229 | 1.6 | 12.9 | 0.00 | 1.96 | 1.96 | 97 | 1009.3 |
| 20260510013055 | 8 | 355 | 1.6 | 9.7 | 0.00 | 1.96 | 1.96 | 96 | 1009.6 |
| 20260510011557 | 8 | 249 | 3.2 | 11.3 | 0.00 | 1.96 | 1.96 | 96 | 1009.5 |
| 20260510010058 | 8 | 204 | 1.6 | 9.7 | 0.00 | 1.96 | 1.96 | 96 | 1009.4 |
| 20260510004600 | 8 | 160 | 1.6 | 9.7 | 0.00 | 1.96 | 1.96 | 96 | 1009.0 |
| 20260510003100 | 8 | 194 | 1.6 | 6.4 | 0.00 | 1.96 | 1.96 | 96 | 1009.0 |
| 20260510001557 | 9 | 0 | 3.2 | 11.3 | 0.00 | 1.96 | 1.96 | 96 | 1009.0 |
| 20260510000058 | 9 | 153 | 0.0 | 8.0 | 0.00 | 1.96 | 1.96 | 96 | 1008.9 |
| 20260509234557 | 9 | 229 | 0.0 | 4.8 | 0.00 | 1.96 | 1.96 | 95 | 1008.6 |
| 20260509233054 | 10 | 207 | 1.6 | 6.4 | 0.00 | 1.96 | 1.96 | 94 | 1008.1 |
| 20260509231558 | 10 | 215 | 1.6 | 8.0 | 0.00 | 1.96 | 1.96 | 95 | 1008.4 |
| 20260509230100 | 9 | 153 | 1.6 | 9.7 | 0.00 | 1.96 | 1.96 | 95 | 1008.1 |
| 20260509224558 | 9 | 196 | 1.6 | 16.1 | 0.00 | 1.96 | 1.96 | 95 | 1008.0 |
| 20260509223057 | 9 | 117 | 1.6 | 9.7 | 0.00 | 1.96 | 1.96 | 95 | 1008.0 |
| 20260509221555 | 10 | 151 | 1.6 | 16.1 | 0.00 | 1.96 | 1.96 | 94 | 1008.3 |
| 20260509220106 | 10 | 92 | 1.6 | 14.5 | 0.00 | 1.96 | 1.96 | 94 | 1008.1 |
| 20260509214603 | 10 | 110 | 3.2 | 17.7 | 0.00 | 1.96 | 1.96 | 95 | 1008.5 |
| 20260509213131 | 10 | 216 | 3.2 | 16.1 | 0.00 | 1.96 | 1.96 | 93 | 1008.6 |
| 20260509211557 | 10 | 206 | 4.8 | 16.1 | 0.00 | 1.96 | 1.96 | 94 | 1008.6 |
| 20260509210105 | 10 | 221 | 1.6 | 12.9 | 0.05 | 1.96 | 1.96 | 96 | 1008.6 |
| 20260509204555 | 9 | 218 | 3.2 | 17.7 | 0.05 | 1.96 | 1.96 | 96 | 1008.7 |
| 20260509203100 | 9 | 304 | 4.8 | 19.3 | 0.05 | 1.96 | 1.96 | 96 | 1008.9 |
| 20260509201554 | 8 | 107 | 4.8 | 22.5 | 0.08 | 1.96 | 1.96 | 96 | 1009.0 |
| 20260509200104 | 8 | 138 | 3.2 | 17.7 | 0.03 | 1.91 | 1.91 | 96 | 1009.2 |
| 20260509194559 | 8 | 246 | 3.2 | 14.5 | 0.05 | 1.91 | 1.91 | 96 | 1009.3 |
| 20260509193058 | 8 | 141 | 4.8 | 16.1 | 0.08 | 1.91 | 1.91 | 96 | 1009.4 |
| 20260509191557 | 8 | 188 | 3.2 | 9.7 | 0.08 | 1.88 | 1.88 | 96 | 1009.4 |
| 20260509190056 | 8 | 161 | 3.2 | 16.1 | 0.10 | 1.88 | 1.88 | 96 | 1009.5 |
| 20260509184558 | 8 | 228 | 6.4 | 20.9 | 0.08 | 1.85 | 1.85 | 96 | 1009.6 |
| 20260509183103 | 8 | 133 | 6.4 | 16.1 | 0.10 | 1.83 | 1.83 | 96 | 1009.6 |
| 20260509181603 | 8 | 178 | 4.8 | 24.1 | 0.10 | 1.80 | 1.80 | 96 | 1009.4 |
| 20260509174556 | 8 | 218 | 3.2 | 12.9 | 0.13 | 1.78 | 1.78 | 97 | 1009.3 |
| 20260509173057 | 8 | 176 | 3.2 | 12.9 | 0.10 | 1.73 | 1.73 | 97 | 1009.2 |
| 20260509171555 | 8 | 222 | 1.6 | 11.3 | 0.10 | 1.70 | 1.70 | 96 | 1009.4 |
| 20260509170100 | 8 | 86 | 1.6 | 8.0 | 0.10 | 1.68 | 1.68 | 97 | 1009.4 |
| 20260509164604 | 8 | 106 | 1.6 | 6.4 | 0.10 | 1.65 | 1.65 | 97 | 1009.5 |
| 20260509163059 | 8 | 90 | 1.6 | 9.7 | 0.13 | 1.63 | 1.63 | 97 | 1009.7 |
| 20260509161554 | 8 | 86 | 1.6 | 14.5 | 0.18 | 1.60 | 1.60 | 97 | 1009.7 |
| 20260509160059 | 8 | 136 | 3.2 | 11.3 | 0.20 | 1.57 | 1.57 | 97 | 1009.8 |
| 20260509154614 | 8 | 106 | 1.6 | 9.7 | 0.23 | 1.55 | 1.55 | 97 | 1010.1 |
| 20260509153103 | 8 | 97 | 0.0 | 11.3 | 0.25 | 1.47 | 1.47 | 97 | 1010.4 |
| 20260509151555 | 8 | 161 | 0.0 | 6.4 | 0.23 | 1.42 | 1.42 | 97 | 1010.7 |
| 20260509150058 | 7 | 119 | 1.6 | 8.0 | 0.23 | 1.37 | 1.37 | 97 | 1010.7 |
| 20260509144600 | 7 | 0 | 1.6 | 9.7 | 0.23 | 1.32 | 1.32 | 97 | 1010.8 |
| 20260509143057 | 7 | 63 | 1.6 | 6.4 | 0.20 | 1.24 | 1.24 | 97 | 1010.8 |
| 20260509141600 | 7 | 136 | 1.6 | 12.9 | 0.20 | 1.19 | 1.19 | 97 | 1010.7 |
| 20260509140104 | 7 | 109 | 1.6 | 9.7 | 0.18 | 1.14 | 1.14 | 97 | 1010.6 |
| 20260509134558 | 7 | 108 | 1.6 | 4.8 | 0.13 | 1.09 | 1.09 | 97 | 1010.4 |
| 20260509133056 | 7 | 110 | 1.6 | 6.4 | 0.10 | 1.04 | 1.04 | 97 | 1010.4 |
| 20260509131556 | 7 | 0 | 1.6 | 6.4 | 0.05 | 0.99 | 0.99 | 97 | 1010.7 |
| 20260509130056 | 7 | 105 | 3.2 | 9.7 | 0.03 | 0.97 | 0.97 | 97 | 1010.7 |
| 20260509124608 | 7 | 120 | 1.6 | 9.7 | 0.03 | 0.97 | 0.97 | 97 | 1010.5 |
| 20260509123059 | 7 | 124 | 1.6 | 11.3 | 0.00 | 0.94 | 0.94 | 97 | 1010.6 |
| 20260509121607 | 7 | 98 | 1.6 | 6.4 | 0.03 | 0.94 | 0.94 | 97 | 1010.6 |
| 20260509120112 | 7 | 118 | 1.6 | 6.4 | 0.03 | 0.94 | 0.94 | 98 | 1010.7 |
| 20260509114557 | 7 | 84 | 1.6 | 6.4 | 0.03 | 0.94 | 0.94 | 98 | 1010.8 |
| 20260509113056 | 6 | 0 | 1.6 | 3.2 | 0.05 | 0.94 | 0.94 | 98 | 1010.9 |
| 20260509111557 | 6 | 0 | 0.0 | 6.4 | 0.03 | 0.91 | 0.91 | 98 | 1010.9 |
| 20260509110101 | 6 | 0 | 0.0 | 3.2 | 0.08 | 0.91 | 0.91 | 97 | 1010.9 |
| 20260509104557 | 6 | 124 | 0.0 | 8.0 | 0.13 | 0.91 | 0.91 | 97 | 1010.8 |
| 20260509103101 | 6 | 132 | 1.6 | 9.7 | 0.18 | 0.89 | 0.89 | 97 | 1010.9 |
| 20260509101600 | 6 | 102 | 0.0 | 3.2 | 0.23 | 0.89 | 0.89 | 97 | 1010.9 |
| 20260509100055 | 6 | 169 | 0.0 | 6.4 | 0.18 | 0.84 | 0.84 | 97 | 1010.8 |
| 20260509094600 | 6 | 0 | 0.0 | 3.2 | 0.18 | 0.79 | 0.79 | 97 | 1010.9 |
| 20260509093059 | 6 | 0 | 0.0 | 6.4 | 0.15 | 0.71 | 0.71 | 97 | 1010.7 |
| 20260509091622 | 6 | 101 | 0.0 | 3.2 | 0.15 | 0.66 | 0.66 | 97 | 1010.8 |
| 20260509090057 | 6 | 0 | 0.0 | 1.6 | 0.20 | 0.66 | 0.66 | 97 | 1010.4 |
| 20260509084558 | 6 | 0 | 0.0 | 9.7 | 0.20 | 0.61 | 0.61 | 96 | 1010.7 |
| 20260509083058 | 6 | 189 | 0.0 | 3.2 | 0.20 | 0.56 | 0.56 | 96 | 1010.9 |
| 20260509081557 | 6 | 250 | 0.0 | 4.8 | 0.20 | 0.51 | 0.51 | 96 | 1011.0 |
| 20260509080108 | 6 | 0 | 0.0 | 4.8 | 0.20 | 0.46 | 0.46 | 96 | 1011.0 |
| 20260509074559 | 6 | 160 | 1.6 | 8.0 | 0.23 | 0.41 | 0.41 | 96 | 1011.1 |
| 20260509073133 | 6 | 0 | 1.6 | 9.7 | 0.23 | 0.36 | 0.36 | 96 | 1011.3 |
| 20260509071553 | 6 | 0 | 0.0 | 8.0 | 0.23 | 0.30 | 0.30 | 95 | 1011.3 |
| 20260509070100 | 6 | 161 | 0.0 | 4.8 | 0.20 | 0.25 | 0.25 | 95 | 1011.4 |
| 20260509064556 | 6 | 0 | 0.0 | 3.2 | 0.18 | 0.18 | 0.18 | 95 | 1011.5 |
| 20260509063059 | 6 | 0 | 0.0 | 1.6 | 0.13 | 0.13 | 0.13 | 94 | 1011.3 |
| 20260509061601 | 6 | 0 | 0.0 | 1.6 | 0.08 | 0.08 | 0.08 | 93 | 1011.4 |
| 20260509060107 | 6 | 0 | 0.0 | 1.6 | 0.05 | 0.05 | 0.05 | 92 | 1011.5 |
| 20260509054612 | 6 | 177 | 0.0 | 3.2 | 0.00 | 0.03 | 0.00 | 90 | 1011.7 |
| 20260509053105 | 6 | 0 | 0.0 | 3.2 | 0.00 | 0.03 | 0.00 | 89 | 1011.7 |
| 20260509051557 | 6 | 0 | 0.0 | 6.4 | 0.00 | 0.03 | 0.00 | 87 | 1011.5 |
| 20260509050059 | 6 | 0 | 0.0 | 4.8 | 0.00 | 0.03 | 0.00 | 86 | 1011.7 |